星链-3642 (STARLINK-3642 )

导读

STARLINK-3642是美国太空探索技术公司(SpaceX)星链星座的一员,于2022年3月9日发射入轨。星链项目旨在构建全球卫星互联网星座,为全球偏远、欠发达地区等提供高速互联网接入服务。STARLINK-3642服役至今已近四年,目前它在既定轨道运行,支撑着星链网络整体服务能力,延续星座的通信覆盖功能。

基本信息
目录编号:
51989
目录名称:
STARLINK-3642
国际标识:
2022-025AK
轨道中心:
EARTH
卫星名称:
星链-3642
卫星全名:
星链-3642 (STARLINK-3642 )
卫星状态:
在轨 (已飞行1640 天)
发射日期:
2022-03-09 UTC
国别 :
美国 (US)
星等 :
--
轨道信息
数据来源 国际轨道数据
星历时间: 2026-09-03T23:21:54+0800
12小时前
查看轨道信息
半长轴: 6840.873km
偏心率: 0.0001116
轨道倾角: 53.160°
近地点辐角 78.665°
升交点赤经 306.472°
平近点角 281.447°
近地点: 461.972km
远地点: 463.5km
周期: 93.848分钟
每日圈数: 15.34389
详细信息
固有亮度:
5
最大亮度:
2.5
卫星平台:
Starlink v1.5
覆盖范围:
全球
运营商:
太空探索技术公司
运营商所在国:
美国
制造商(研发单位):
太空探索技术公司
制造商所在国:
美国
使用方式:
暂无
卫星简介
星链(Starlink)计划是由太空探索技术公司(SpaceX)提出的一个巨型低轨卫星互联网星座项目,计划在2019年至2024年间在太空搭建由约1.2万颗卫星组成的“星链”网络,其中1584颗将部署在地球上空550千米处的近地轨道,并从2020年开始工作。该卫星仍在工作。
2D轨道图
3D轨道图
轨道高度分析图
轨道倾角分析图
轨道综合分析图
查看轨道综合分析图